GW3513 Weather Reports


Display with metric or nautical units.
time (UTC)temp
F
wind
direction
speed
MPH
gust
MPH
rain 1hr
in
rain 24hr
in
rain mn
in
humidity
%
barometer
mb
20260505111643 58 160 0.0 0.0 0.00 0.00 0.00 99 1008.8
20260505111139 58 160 0.0 0.0 0.00 0.00 0.00 99 1008.7
20260505110635 58 160 0.0 0.0 0.00 0.00 0.00 99 1008.4
20260505110133 58 160 0.0 0.0 0.00 0.00 0.00 99 1008.2
20260505102108 58 160 0.0 0.0 0.00 0.00 0.00 99 1008.7
20260505101607 58 160 0.0 0.0 0.00 0.00 0.00 99 1008.9
20260505101103 58 160 0.0 0.0 0.00 0.00 0.00 99 1008.8
20260505100559 58 160 0.0 0.0 0.00 0.00 0.00 99 1008.8
20260505100056 58 160 0.0 0.0 0.00 0.00 0.00 99 1008.5
20260505095552 57 160 0.0 0.0 0.00 0.00 0.00 99 1008.6
20260505095049 57 160 0.0 0.0 0.00 0.00 0.00 99 1008.4
20260505094545 57 160 0.0 0.0 0.00 0.00 0.00 99 1007.7
20260505094042 57 160 0.0 0.0 0.00 0.00 0.00 99 1007.5
20260505093538 57 160 0.0 0.0 0.00 0.00 0.00 99 1007.5
20260505093036 57 160 0.0 0.0 0.00 0.00 0.00 99 1007.5
20260505092533 57 160 0.0 0.0 0.00 0.00 0.00 99 1007.6
20260505092031 57 160 0.0 0.0 0.00 0.00 0.00 99 1006.8
20260505091528 57 160 0.0 0.0 0.00 0.00 0.00 99 1006.8
20260505091027 57 160 0.0 0.0 0.00 0.00 0.00 99 1007.1
20260505090524 57 160 0.0 0.0 0.00 0.00 0.00 99 1007.0
20260505090021 57 160 0.0 0.0 0.00 0.00 0.00 99 1006.3
20260505085519 58 160 0.0 0.0 0.00 0.00 0.00 99 1005.7
20260505085017 58 160 0.0 0.0 0.00 0.00 0.00 99 1006.1
20260505084515 59 160 0.0 0.0 0.00 0.00 0.00 99 1006.3
20260505084013 59 161 0.0 0.0 0.00 0.00 0.00 99 1006.3
20260505083510 59 161 0.0 0.0 0.00 0.00 0.00 99 1007.7
20260505083006 59 161 0.0 0.0 0.00 0.00 0.00 99 1008.1
20260505082502 59 161 0.0 0.0 0.00 0.00 0.00 99 1008.5
20260505081959 59 161 0.0 0.0 0.00 0.00 0.00 99 1008.7
20260505081455 60 161 0.0 0.0 0.00 0.00 0.00 99 1009.0
20260505080952 60 161 0.0 0.0 0.00 0.00 0.00 99 1008.7
20260505080448 59 161 0.0 0.0 0.00 0.00 0.00 99 1008.9
20260505075944 59 161 0.0 0.0 0.00 0.00 0.00 99 1009.0
20260505075441 59 161 0.0 0.0 0.00 0.00 0.00 99 1008.7
20260505074938 59 161 0.0 0.0 0.00 0.00 0.00 99 1008.6
20260505074436 59 161 0.0 0.0 0.00 0.00 0.00 99 1008.7
20260505073933 59 161 0.0 0.0 0.00 0.00 0.00 99 1008.7
20260505073430 59 161 0.0 0.0 0.00 0.00 0.00 99 1008.7
20260505072927 59 161 0.0 0.0 0.00 0.00 0.00 99 1008.7
20260505072423 59 161 0.0 0.0 0.00 0.00 0.00 99 1008.6
20260505071920 60 161 0.0 0.0 0.00 0.00 0.00 97 1008.4
20260505071416 60 161 0.0 0.0 0.00 0.00 0.00 95 1008.4
20260505070914 61 161 0.0 0.0 0.00 0.00 0.00 91 1008.7
20260505070410 63 161 0.0 0.0 0.00 0.00 0.00 85 1008.6
20260505065906 64 161 0.0 0.0 0.00 0.00 0.00 81 1008.3
20260505065403 63 161 0.0 0.0 0.00 0.00 0.00 80 1008.2
20260505064859 64 161 0.0 0.0 0.00 0.00 0.00 80 1008.1
20260505064356 64 161 0.0 0.0 0.00 0.00 0.00 78 1007.7
20260505063855 64 161 0.0 0.0 0.00 0.00 0.00 78 1008.1
20260505063355 64 161 0.0 0.0 0.00 0.00 0.00 78 1008.2
20260505062853 64 161 0.0 0.0 0.00 0.00 0.00 78 1008.4
20260505062350 64 161 0.0 0.0 0.00 0.00 0.00 78 1008.6
20260505061846 64 161 0.0 0.0 0.00 0.00 0.00 78 1008.5
20260505061345 64 161 0.0 0.0 0.00 0.00 0.00 78 1008.6
20260505060842 64 161 0.0 0.0 0.00 0.00 0.00 78 1008.6
20260505060339 64 161 0.0 0.0 0.00 0.00 0.00 78 1008.6
20260505055835 63 161 0.0 0.0 0.00 0.00 0.00 78 1008.7
20260505055331 63 161 0.0 0.0 0.00 0.00 0.00 78 1008.5
20260505054828 63 161 0.0 0.0 0.00 0.00 0.00 78 1008.7
20260505054325 64 161 0.0 0.0 0.00 0.00 0.00 78 1008.7
20260505053824 63 161 0.0 0.0 0.00 0.00 0.00 77 1008.6
20260505053320 63 161 0.0 0.0 0.00 0.00 0.00 78 1008.6
20260505052817 63 161 0.0 0.0 0.00 0.00 0.00 77 1008.7
20260505052314 63 161 0.0 0.0 0.00 0.00 0.00 77 1008.5
20260505051811 63 161 0.0 0.0 0.00 0.00 0.00 77 1008.6
20260505051309 63 161 0.0 0.0 0.00 0.00 0.00 77 1008.6
20260505050806 63 161 0.0 0.0 0.00 0.00 0.00 77 1008.9
20260505050305 63 161 0.0 0.0 0.00 0.00 0.00 77 1008.8
20260505041734 63 161 0.0 0.0 0.00 0.00 0.00 76 1009.1
20260505041231 64 161 0.0 0.0 0.00 0.00 0.00 76 1009.4
20260505040729 64 161 0.0 0.0 0.00 0.00 0.00 75 1009.2
20260505040226 64 161 0.0 0.0 0.00 0.00 0.00 75 1009.5
20260505035723 64 161 0.0 0.0 0.00 0.00 0.00 75 1009.4
20260505035219 64 161 0.0 0.0 0.00 0.00 0.00 75 1009.5
20260505034716 64 161 0.0 0.0 0.00 0.00 0.00 75 1009.7
20260505034213 64 161 0.0 0.0 0.00 0.00 0.00 75 1009.8
20260505033709 65 161 0.0 0.0 0.00 0.00 0.00 74 1009.7
20260505033207 65 161 0.0 0.0 0.00 0.00 0.00 73 1009.9
20260505032705 66 161 0.0 0.0 0.00 0.00 0.00 71 1009.7
20260505032200 67 161 0.0 0.0 0.00 0.00 0.00 70 1009.7
20260505031658 67 161 0.0 0.0 0.00 0.00 0.00 69 1009.6
20260505031154 67 161 0.0 0.0 0.00 0.00 0.00 69 1009.7
20260505030651 67 161 0.0 0.0 0.00 0.00 0.00 69 1009.8
20260505030147 67 161 0.0 0.0 0.00 0.00 0.00 70 1009.9
20260505025643 67 161 0.0 0.0 0.00 0.00 0.00 71 1009.8
20260505025142 67 161 0.0 0.0 0.00 0.00 0.00 71 1010.0
20260505024639 67 161 0.0 0.0 0.00 0.00 0.00 71 1009.8
20260505024136 67 161 0.0 0.0 0.00 0.00 0.00 72 1009.7
20260505023634 67 161 0.0 0.0 0.00 0.00 0.00 71 1009.7
20260505023131 67 161 0.0 0.0 0.00 0.00 0.00 71 1009.5
20260505022628 66 161 0.0 0.0 0.00 0.00 0.00 71 1009.6
20260505022125 67 161 0.0 0.0 0.00 0.00 0.00 72 1009.3
20260505021622 67 161 0.0 0.0 0.00 0.00 0.00 71 1009.4
20260505021119 67 161 0.0 0.0 0.00 0.00 0.00 72 1009.1
20260505020614 67 161 0.0 0.0 0.00 0.00 0.00 71 1009.0
20260505020111 67 161 0.0 0.0 0.00 0.00 0.00 71 1009.3
20260505015608 68 161 0.0 0.0 0.00 0.00 0.00 69 1009.1
20260505015104 67 161 0.0 0.0 0.00 0.00 0.00 69 1008.9
20260505014601 68 161 0.0 0.0 0.00 0.00 0.00 70 1009.1
20260505014058 68 161 0.0 0.0 0.00 0.00 0.00 68 1008.9
20260505013555 68 161 0.0 0.0 0.00 0.00 0.00 66 1008.9
20260505013053 68 161 0.0 0.0 0.00 0.00 0.00 67 1008.9
20260505012550 68 161 0.0 0.0 0.00 0.00 0.00 67 1008.6
20260505012047 69 161 0.0 0.0 0.00 0.00 0.00 65 1008.5
20260505011543 69 161 0.0 0.0 0.00 0.00 0.00 65 1008.6
20260505011041 70 161 0.0 0.0 0.00 0.00 0.00 63 1008.5
20260505010536 70 161 0.0 0.0 0.00 0.00 0.00 63 1008.5
20260505010033 70 161 0.0 0.0 0.00 0.00 0.00 62 1008.5
20260505005529 70 161 0.0 0.0 0.00 0.00 0.00 62 1008.2
20260505005027 71 161 0.0 0.0 0.00 0.00 0.00 61 1008.2
20260505004523 71 161 0.0 0.0 0.00 0.00 0.00 60 1008.2
20260505004020 71 161 0.0 0.0 0.00 0.00 0.00 61 1008.4
20260505003517 71 161 0.0 0.0 0.00 0.00 0.00 60 1008.4
20260505003015 72 161 0.0 0.0 0.00 0.00 0.00 60 1008.3
20260505002509 72 161 0.0 0.0 0.00 0.00 0.00 59 1008.3
20260505002009 72 161 0.0 0.0 0.00 0.00 0.00 57 1008.3
20260505001506 73 161 0.0 0.0 0.00 0.00 0.00 57 1007.9
20260505001003 73 161 0.0 0.0 0.00 0.00 0.00 57 1007.9
20260505000500 73 161 0.0 0.0 0.00 0.00 0.00 57 1008.1
20260504235957 74 161 0.0 0.0 0.00 0.00 0.00 55 1008.1
20260504235454 75 161 0.0 0.0 0.00 0.00 0.00 53 1008.1
20260504234950 76 161 0.0 0.0 0.00 0.00 0.00 53 1008.1
20260504234448 77 161 0.0 0.0 0.00 0.00 0.00 51 1008.1
20260504233944 77 161 0.0 0.0 0.00 0.00 0.00 51 1008.1
20260504233440 78 161 0.0 0.0 0.00 0.00 0.00 51 1007.9
20260504232937 79 161 0.0 0.0 0.00 0.00 0.00 48 1007.8
20260504232434 81 161 0.0 0.0 0.00 0.00 0.00 45 1007.8
20260504231931 81 161 0.0 0.0 0.00 0.00 0.00 49 1007.9
20260504231427 82 161 0.0 0.0 0.00 0.00 0.00 43 1007.9
20260504230924 83 161 0.0 0.0 0.00 0.00 0.00 43 1007.9
20260504230421 82 161 0.0 0.0 0.00 0.00 0.00 45 1007.8
20260504225920 82 161 0.0 0.0 0.00 0.00 0.00 46 1007.8
20260504225416 85 161 0.0 0.0 0.00 0.00 0.00 42 1008.1
20260504224914 88 161 0.0 0.0 0.00 0.00 0.00 39 1007.8
20260504224410 90 161 0.0 0.0 0.00 0.00 0.00 40 1008.1
20260504223907 88 161 0.0 0.0 0.00 0.00 0.00 42 1007.9
20260504223402 88 161 0.0 0.0 0.00 0.00 0.00 42 1007.9
20260504222859 88 161 0.0 0.0 0.00 0.00 0.00 43 1008.2
20260504222356 89 161 0.0 0.0 0.00 0.00 0.00 43 1007.8
20260504221854 89 161 0.0 0.0 0.00 0.00 0.00 41 1007.9
20260504221351 90 161 0.0 0.0 0.00 0.00 0.00 38 1007.9
20260504220848 90 161 0.0 0.0 0.00 0.00 0.00 42 1007.8
20260504220344 89 161 0.0 0.0 0.00 0.00 0.00 40 1008.1
20260504215842 89 161 0.0 0.0 0.00 0.00 0.00 43 1008.3
20260504215338 90 161 0.0 0.0 0.00 0.00 0.00 39 1008.2
20260504214834 90 161 0.0 0.0 0.00 0.00 0.00 37 1008.2
20260504214331 89 161 0.0 0.0 0.00 0.00 0.00 41 1008.2
20260504213828 88 161 0.0 0.0 0.00 0.00 0.00 43 1008.3
20260504213324 89 161 0.0 0.0 0.00 0.00 0.00 42 1008.2
20260504212821 89 161 0.0 0.0 0.00 0.00 0.00 41 1008.3
20260504212317 88 161 0.0 0.0 0.00 0.00 0.00 40 1008.5
20260504211815 87 161 0.0 0.0 0.00 0.00 0.00 43 1008.4
20260504211311 90 161 0.0 0.0 0.00 0.00 0.00 39 1008.5
20260504210809 88 161 0.0 0.0 0.00 0.00 0.00 43 1008.4
20260504210306 84 161 0.0 0.0 0.00 0.00 0.00 41 1008.5
20260504205803 84 161 0.0 0.0 0.00 0.00 0.00 44 1008.5
20260504205300 88 161 0.0 0.0 0.00 0.00 0.00 41 1008.6
20260504204758 90 161 0.0 0.0 0.00 0.00 0.00 39 1008.8
20260504204256 92 161 0.0 2.0 0.00 0.00 0.00 36 1009.0
20260504203756 91 161 0.0 0.0 0.00 0.00 0.00 37 1008.8
20260504203252 90 160 0.0 0.0 0.00 0.00 0.00 38 1008.9
20260504202747 91 160 0.0 0.0 0.00 0.00 0.00 37 1009.0
20260504202245 92 160 0.0 0.0 0.00 0.00 0.00 36 1009.0
20260504201741 91 160 0.0 0.0 0.00 0.00 0.00 40 1009.1
20260504201239 89 160 0.0 0.0 0.00 0.00 0.00 39 1009.1
20260504200737 89 160 0.0 0.0 0.00 0.00 0.00 40 1009.2
20260504200232 90 160 0.0 0.0 0.00 0.00 0.00 40 1009.2
20260504195729 89 160 0.0 0.0 0.00 0.00 0.00 41 1009.2
20260504195225 90 160 0.0 0.0 0.00 0.00 0.00 41 1009.3
20260504194722 89 160 0.0 0.0 0.00 0.00 0.00 42 1009.3
20260504194218 87 160 0.0 0.0 0.00 0.00 0.00 42 1009.5
20260504193715 91 160 0.0 0.0 0.00 0.00 0.00 35 1009.4
20260504193212 89 160 0.0 0.0 0.00 0.00 0.00 37 1009.3
20260504192710 89 160 0.0 0.0 0.00 0.00 0.00 43 1009.3
20260504192208 88 160 0.0 0.0 0.00 0.00 0.00 41 1009.3
20260504191706 87 160 0.0 0.0 0.00 0.00 0.00 44 1009.4
20260504191203 88 160 0.0 0.0 0.00 0.00 0.00 43 1009.5
20260504190658 88 160 0.0 0.0 0.00 0.00 0.00 39 1009.3
20260504190155 91 160 0.0 0.0 0.00 0.00 0.00 40 1009.6
20260504185651 89 160 0.0 0.0 0.00 0.00 0.00 43 1009.5
20260504185148 87 160 0.0 0.0 0.00 0.00 0.00 41 1009.5
20260504184644 88 160 0.0 0.0 0.00 0.00 0.00 40 1009.4
20260504184139 87 160 0.0 0.0 0.00 0.00 0.00 45 1009.4
20260504183636 87 160 0.0 0.0 0.00 0.00 0.00 42 1009.4
20260504183134 87 160 0.0 0.0 0.00 0.00 0.00 43 1009.4
20260504182632 85 160 0.0 0.0 0.00 0.00 0.00 42 1009.5
20260504182129 85 161 0.0 0.0 0.00 0.00 0.00 41 1009.4
20260504181626 86 161 0.0 0.0 0.00 0.00 0.00 42 1009.6
20260504181123 85 161 0.0 0.0 0.00 0.00 0.00 43 1009.5
20260504180623 87 161 0.0 0.0 0.00 0.00 0.00 40 1009.4
20260504180121 87 160 0.0 0.0 0.00 0.00 0.00 42 1009.6
20260504175618 85 161 0.0 0.0 0.00 0.00 0.00 45 1009.8
20260504175114 86 161 0.0 0.0 0.00 0.00 0.00 41 1009.5
20260504174613 87 161 0.0 0.0 0.00 0.00 0.00 38 1009.7
20260504174109 88 161 0.0 1.0 0.00 0.00 0.00 42 1009.6
20260504173606 85 161 0.0 0.0 0.00 0.00 0.00 42 1010.0
20260504173104 83 161 0.0 0.0 0.00 0.00 0.00 45 1010.0
20260504172559 84 161 0.0 0.0 0.00 0.00 0.00 45 1009.9
20260504172056 84 161 0.0 0.0 0.00 0.00 0.00 49 1009.8
20260504171553 83 161 0.0 0.0 0.00 0.00 0.00 46 1009.8
20260504171050 82 161 0.0 0.0 0.00 0.00 0.00 42 1009.8
20260504170545 83 160 0.0 0.0 0.00 0.00 0.00 44 1009.7
20260504150930 77 161 0.0 0.0 0.00 0.00 0.00 53 1010.8
20260504150426 76 161 0.0 0.0 0.00 0.00 0.00 47 1010.9
20260504140853 71 161 0.0 0.0 0.00 0.00 0.00 55 1011.5
20260504140349 70 161 0.0 0.0 0.00 0.00 0.00 55 1011.6
20260504130818 65 161 0.0 0.0 0.00 0.00 0.00 63 1011.5
20260504130314 65 161 0.0 0.0 0.00 0.00 0.00 62 1011.6
20260504120237 60 160 0.0 0.0 0.00 0.00 0.00 66 1011.9